Wetterdaten: Freitag, 01.06.2012
Datum Zeit Temperatur Luftfeuchte Regen Wind Richtung Richtung Taupunkt Windchill Windben
01.06.2012 00:00 13,2 C 87 % 0,0 l/m 4,3 km/h (1 Bft) SO 135 11,1 C 13,7 C 4,2 km/h (1 Bft)
01.06.2012 00:05 13,3 C 87 % 0,0 l/m 4,0 km/h (1 Bft) SO 135 11,2 C 13,8 C 8,2 km/h (2 Bft)
01.06.2012 00:10 13,4 C 86 % 0,0 l/m 4,3 km/h (1 Bft) O-SO 112 11,1 C 14,0 C 10,8 km/h (2 Bft)
01.06.2012 00:15 13,6 C 85 % 0,0 l/m 5,1 km/h (1 Bft) NO 45 11,1 C 14,0 C 8,0 km/h (2 Bft)
01.06.2012 00:20 13,7 C 84 % 0,0 l/m 5,8 km/h (2 Bft) O-SO 112 11,0 C 14,1 C 15,4 km/h (3 Bft)
01.06.2012 00:25 13,8 C 83 % 0,0 l/m 7,1 km/h (2 Bft) SO 135 11,0 C 13,7 C 12,1 km/h (2 Bft)
01.06.2012 00:30 13,7 C 83 % 0,0 l/m 7,4 km/h (2 Bft) SO 135 10,9 C 13,3 C 19,0 km/h (3 Bft)
01.06.2012 00:35 13,9 C 82 % 0,0 l/m 7,2 km/h (2 Bft) SO 135 10,9 C 13,2 C 9,3 km/h (2 Bft)
01.06.2012 00:40 13,6 C 84 % 0,0 l/m 7,2 km/h (2 Bft) O-SO 112 10,9 C 12,8 C 19,3 km/h (3 Bft)
01.06.2012 00:45 13,4 C 85 % 0,0 l/m 8,0 km/h (2 Bft) SO 135 10,9 C 11,8 C 10,9 km/h (2 Bft)
01.06.2012 00:50 13,0 C 87 % 0,0 l/m 7,2 km/h (2 Bft) S-SO 157 10,9 C 11,9 C 8,2 km/h (2 Bft)
01.06.2012 00:55 12,7 C 88 % 0,7 l/m 5,8 km/h (2 Bft) N-NO 22 10,8 C 12,6 C 0,0 km/h (0 Bft)
01.06.2012 01:00 12,6 C 89 % 0,7 l/m 4,3 km/h (1 Bft) SO 135 10,8 C 12,5 C 8,4 km/h (2 Bft)
01.06.2012 01:05 12,6 C 89 % 0,7 l/m 4,2 km/h (1 Bft) O-SO 112 10,8 C 12,5 C 9,5 km/h (2 Bft)
01.06.2012 01:10 12,6 C 90 % 0,7 l/m 4,8 km/h (1 Bft) NO 45 11,0 C 12,4 C 8,7 km/h (2 Bft)
01.06.2012 01:15 12,5 C 91 % 0,0 l/m 5,0 km/h (1 Bft) S-SO 157 11,1 C 12,4 C 15,6 km/h (3 Bft)
01.06.2012 01:20 12,5 C 91 % 0,7 l/m 6,8 km/h (2 Bft) SO 135 11,1 C 11,8 C 8,9 km/h (2 Bft)
01.06.2012 01:25 12,5 C 92 % 0,0 l/m 7,9 km/h (2 Bft) O 90 11,2 C 10,8 C 15,8 km/h (3 Bft)
01.06.2012 01:30 12,5 C 92 % 0,0 l/m 6,6 km/h (2 Bft) O-NO 67 11,2 C 12,0 C 3,7 km/h (1 Bft)
01.06.2012 01:35 12,5 C 92 % 0,0 l/m 6,0 km/h (2 Bft) O-SO 112 11,2 C 12,2 C 7,6 km/h (2 Bft)
01.06.2012 01:40 12,4 C 92 % 0,0 l/m 5,1 km/h (1 Bft) O-SO 112 11,1 C 12,4 C 5,5 km/h (1 Bft)
01.06.2012 01:45 12,5 C 92 % 0,0 l/m 6,4 km/h (2 Bft) O-SO 112 11,2 C 12,1 C 10,8 km/h (2 Bft)
01.06.2012 01:50 12,5 C 92 % 0,0 l/m 8,2 km/h (2 Bft) SO 135 11,2 C 10,7 C 10,9 km/h (2 Bft)
01.06.2012 01:55 12,5 C 92 % 0,0 l/m 6,9 km/h (2 Bft) S-SO 157 11,2 C 12,0 C 2,4 km/h (1 Bft)
01.06.2012 02:00 12,5 C 92 % 0,0 l/m 5,5 km/h (1 Bft) O-SO 112 11,2 C 12,4 C 7,1 km/h (2 Bft)
01.06.2012 02:05 12,5 C 92 % 0,0 l/m 5,6 km/h (1 Bft) SO 135 11,2 C 12,4 C 6,4 km/h (2 Bft)
01.06.2012 02:10 12,5 C 93 % 0,7 l/m 5,5 km/h (1 Bft) S-SO 157 11,4 C 12,3 C 13,4 km/h (3 Bft)
01.06.2012 02:15 12,4 C 93 % 0,0 l/m 5,8 km/h (2 Bft) O-SO 112 11,3 C 12,2 C 11,1 km/h (2 Bft)
01.06.2012 02:20 12,4 C 93 % 0,0 l/m 6,8 km/h (2 Bft) O 90 11,3 C 11,8 C 4,5 km/h (1 Bft)
01.06.2012 02:25 12,4 C 93 % 0,0 l/m 6,0 km/h (2 Bft) O-SO 112 11,3 C 12,2 C 9,8 km/h (2 Bft)
01.06.2012 02:30 12,3 C 92 % 0,0 l/m 4,8 km/h (1 Bft) SO 135 11,0 C 12,4 C 8,4 km/h (2 Bft)
01.06.2012 02:35 12,3 C 92 % 0,0 l/m 4,3 km/h (1 Bft) O 90 11,0 C 12,4 C 5,1 km/h (1 Bft)
01.06.2012 02:40 12,3 C 92 % 0,0 l/m 4,2 km/h (1 Bft) O-SO 112 11,0 C 12,5 C 5,8 km/h (2 Bft)
01.06.2012 02:45 12,3 C 92 % 0,0 l/m 4,8 km/h (1 Bft) NW 315 11,0 C 12,5 C 8,0 km/h (2 Bft)
01.06.2012 02:50 12,3 C 92 % 0,0 l/m 5,6 km/h (1 Bft) O-SO 112 11,0 C 12,4 C 5,0 km/h (1 Bft)
01.06.2012 02:55 12,3 C 92 % 0,0 l/m 6,1 km/h (2 Bft) SO 135 11,0 C 12,3 C 9,8 km/h (2 Bft)
01.06.2012 03:00 12,4 C 92 % 0,0 l/m 7,1 km/h (2 Bft) O-SO 112 11,1 C 11,8 C 7,2 km/h (2 Bft)
01.06.2012 03:05 12,3 C 92 % 0,0 l/m 7,7 km/h (2 Bft) O 90 11,0 C 11,5 C 4,7 km/h (1 Bft)
01.06.2012 03:10 12,4 C 92 % 0,0 l/m 7,7 km/h (2 Bft) O-SO 112 11,1 C 11,5 C 10,5 km/h (2 Bft)
01.06.2012 03:15 12,4 C 92 % 0,0 l/m 8,4 km/h (2 Bft) S-SO 157 11,1 C 10,9 C 5,8 km/h (2 Bft)
01.06.2012 03:20 12,5 C 92 % 0,0 l/m 7,6 km/h (2 Bft) SO 135 11,2 C 11,5 C 6,9 km/h (2 Bft)
01.06.2012 03:25 12,5 C 92 % 0,0 l/m 7,1 km/h (2 Bft) SO 135 11,2 C 11,8 C 10,9 km/h (2 Bft)
01.06.2012 03:30 12,7 C 92 % 0,0 l/m 8,4 km/h (2 Bft) O-NO 67 11,4 C 11,0 C 11,4 km/h (2 Bft)
01.06.2012 03:35 12,6 C 92 % 0,0 l/m 8,2 km/h (2 Bft) S 180 11,3 C 11,4 C 8,5 km/h (2 Bft)
01.06.2012 03:40 12,7 C 91 % 0,0 l/m 6,9 km/h (2 Bft) O-SO 112 11,3 C 12,5 C 5,0 km/h (1 Bft)
01.06.2012 03:45 12,8 C 91 % 0,0 l/m 7,1 km/h (2 Bft) S-SO 157 11,4 C 12,4 C 11,6 km/h (2 Bft)
01.06.2012 03:50 12,7 C 91 % 0,0 l/m 7,4 km/h (2 Bft) O 90 11,3 C 12,1 C 11,3 km/h (2 Bft)
01.06.2012 03:55 12,8 C 91 % 0,0 l/m 8,0 km/h (2 Bft) SO 135 11,4 C 11,5 C 10,0 km/h (2 Bft)
01.06.2012 04:00 12,8 C 91 % 0,0 l/m 8,7 km/h (2 Bft) S-SO 157 11,4 C 10,8 C 14,0 km/h (3 Bft)
01.06.2012 04:05 12,9 C 92 % 0,0 l/m 9,2 km/h (2 Bft) O-SO 112 11,6 C 10,5 C 8,4 km/h (2 Bft)
01.06.2012 04:10 13,0 C 90 % 0,0 l/m 9,3 km/h (2 Bft) S-SO 157 11,4 C 10,5 C 8,7 km/h (2 Bft)
01.06.2012 04:15 13,0 C 91 % 0,7 l/m 8,0 km/h (2 Bft) S 180 11,6 C 11,5 C 7,1 km/h (2 Bft)
01.06.2012 04:20 13,0 C 91 % 0,0 l/m 6,3 km/h (2 Bft) S 180 11,6 C 12,8 C 6,4 km/h (2 Bft)
01.06.2012 04:25 13,0 C 91 % 0,0 l/m 5,6 km/h (1 Bft) SO 135 11,6 C 12,8 C 13,0 km/h (3 Bft)
01.06.2012 04:30 13,0 C 91 % 0,7 l/m 6,3 km/h (2 Bft) S-SO 157 11,6 C 12,7 C 14,3 km/h (3 Bft)
01.06.2012 04:35 12,8 C 93 % 0,7 l/m 7,6 km/h (2 Bft) S 180 11,7 C 11,5 C 13,0 km/h (3 Bft)
01.06.2012 04:40 12,4 C 92 % 0,0 l/m 8,7 km/h (2 Bft) O 90 11,1 C 10,3 C 11,4 km/h (2 Bft)
01.06.2012 04:45 12,1 C 92 % 0,0 l/m 10,0 km/h (2 Bft) SO 135 10,8 C 8,9 C 19,6 km/h (3 Bft)
01.06.2012 04:50 11,7 C 91 % 0,0 l/m 10,9 km/h (2 Bft) S-SO 157 10,3 C 7,7 C 24,6 km/h (4 Bft)
01.06.2012 04:55 11,4 C 91 % 0,0 l/m 11,6 km/h (2 Bft) S-SO 157 10,0 C 6,8 C 7,7 km/h (2 Bft)
01.06.2012 05:00 11,2 C 90 % 0,7 l/m 11,1 km/h (2 Bft) SO 135 9,6 C 6,8 C 8,7 km/h (2 Bft)
01.06.2012 05:05 11,1 C 91 % 0,0 l/m 10,1 km/h (2 Bft) SO 135 9,7 C 7,3 C 16,3 km/h (3 Bft)
01.06.2012 05:10 11,0 C 91 % 0,7 l/m 8,0 km/h (2 Bft) S-SW 202 9,6 C 9,0 C 6,6 km/h (2 Bft)
01.06.2012 05:15 10,9 C 91 % 0,7 l/m 6,4 km/h (2 Bft) S-SO 157 9,5 C 10,3 C 7,6 km/h (2 Bft)
01.06.2012 05:20 10,9 C 92 % 0,0 l/m 5,5 km/h (1 Bft) NO 45 9,7 C 10,5 C 4,2 km/h (1 Bft)
01.06.2012 05:25 10,9 C 92 % 0,7 l/m 5,3 km/h (1 Bft) O-NO 67 9,7 C 10,6 C 3,4 km/h (1 Bft)
01.06.2012 05:30 11,0 C 92 % 0,0 l/m 4,8 km/h (1 Bft) O-SO 112 9,8 C 10,7 C 7,2 km/h (2 Bft)
01.06.2012 05:35 11,0 C 92 % 0,7 l/m 4,3 km/h (1 Bft) O 90 9,8 C 10,9 C 6,9 km/h (2 Bft)
01.06.2012 05:40 11,0 C 93 % 0,7 l/m 4,5 km/h (1 Bft) O 90 9,9 C 10,9 C 4,3 km/h (1 Bft)
01.06.2012 05:45 11,1 C 93 % 0,7 l/m 4,5 km/h (1 Bft) SO 135 10,0 C 10,9 C 10,6 km/h (2 Bft)
01.06.2012 05:50 10,9 C 93 % 1,4 l/m 7,4 km/h (2 Bft) O-SO 112 9,8 C 9,5 C 15,6 km/h (3 Bft)
01.06.2012 05:55 10,8 C 93 % 0,0 l/m 8,7 km/h (2 Bft) O-SO 112 9,7 C 8,2 C 10,8 km/h (2 Bft)
01.06.2012 06:00 10,7 C 93 % 0,7 l/m 9,5 km/h (2 Bft) SO 135 9,6 C 7,5 C 6,9 km/h (2 Bft)
01.06.2012 06:05 10,7 C 93 % 0,0 l/m 11,3 km/h (2 Bft) SO 135 9,6 C 6,1 C 12,4 km/h (3 Bft)
01.06.2012 06:10 10,7 C 93 % 0,7 l/m 11,3 km/h (2 Bft) O-SO 112 9,6 C 6,0 C 10,8 km/h (2 Bft)
01.06.2012 06:15 10,6 C 93 % 0,0 l/m 9,8 km/h (2 Bft) S-SO 157 9,5 C 7,1 C 8,5 km/h (2 Bft)
01.06.2012 06:20 10,6 C 93 % 0,0 l/m 7,9 km/h (2 Bft) O 90 9,5 C 8,6 C 9,5 km/h (2 Bft)
01.06.2012 06:25 10,6 C 93 % 0,7 l/m 7,7 km/h (2 Bft) S-SO 157 9,5 C 8,9 C 7,4 km/h (2 Bft)
01.06.2012 06:30 10,7 C 93 % 0,0 l/m 7,7 km/h (2 Bft) S-SO 157 9,6 C 8,9 C 5,8 km/h (2 Bft)
01.06.2012 06:35 10,7 C 93 % 0,7 l/m 6,9 km/h (2 Bft) SO 135 9,6 C 9,5 C 11,4 km/h (2 Bft)
01.06.2012 06:40 10,7 C 93 % 0,0 l/m 5,8 km/h (2 Bft) O-SO 112 9,6 C 10,2 C 11,3 km/h (2 Bft)
01.06.2012 06:45 10,7 C 93 % 0,7 l/m 6,0 km/h (2 Bft) O-SO 112 9,6 C 10,2 C 6,9 km/h (2 Bft)
01.06.2012 06:50 10,8 C 94 % 0,0 l/m 5,5 km/h (1 Bft) S-SO 157 9,9 C 10,3 C 4,2 km/h (1 Bft)
01.06.2012 06:55 10,8 C 94 % 0,7 l/m 5,6 km/h (1 Bft) SO 135 9,9 C 10,4 C 10,8 km/h (2 Bft)
01.06.2012 07:00 10,8 C 94 % 0,0 l/m 6,0 km/h (2 Bft) O-SO 112 9,9 C 10,3 C 5,8 km/h (2 Bft)
01.06.2012 07:05 10,8 C 94 % 0,7 l/m 6,4 km/h (2 Bft) O 90 9,9 C 10,2 C 14,0 km/h (3 Bft)
01.06.2012 07:10 10,8 C 94 % 0,0 l/m 7,9 km/h (2 Bft) O-SO 112 9,9 C 8,7 C 10,5 km/h (2 Bft)
01.06.2012 07:15 10,9 C 94 % 0,0 l/m 9,8 km/h (2 Bft) SO 135 10,0 C 7,3 C 13,0 km/h (3 Bft)
01.06.2012 07:20 10,9 C 94 % 0,7 l/m 8,9 km/h (2 Bft) O-SO 112 10,0 C 8,0 C 5,5 km/h (1 Bft)
01.06.2012 07:25 10,9 C 94 % 0,0 l/m 7,7 km/h (2 Bft) O-SO 112 10,0 C 9,2 C 6,8 km/h (2 Bft)
01.06.2012 07:30 11,0 C 94 % 0,0 l/m 6,4 km/h (2 Bft) O-SO 112 10,1 C 10,3 C 8,7 km/h (2 Bft)
01.06.2012 07:35 11,0 C 94 % 0,7 l/m 7,1 km/h (2 Bft) O-SO 112 10,1 C 9,7 C 20,1 km/h (4 Bft)
01.06.2012 07:40 10,9 C 94 % 0,0 l/m 8,4 km/h (2 Bft) O-SO 112 10,0 C 8,6 C 10,9 km/h (2 Bft)
01.06.2012 07:45 10,9 C 94 % 0,7 l/m 8,9 km/h (2 Bft) S 180 10,0 C 8,2 C 9,2 km/h (2 Bft)
01.06.2012 07:50 10,9 C 94 % 0,0 l/m 7,9 km/h (2 Bft) O 90 10,0 C 9,0 C 7,4 km/h (2 Bft)
01.06.2012 07:55 10,9 C 94 % 0,0 l/m 8,0 km/h (2 Bft) O-SO 112 10,0 C 9,0 C 10,1 km/h (2 Bft)
01.06.2012 08:00 10,9 C 94 % 0,7 l/m 9,5 km/h (2 Bft) O-SO 112 10,0 C 7,7 C 9,3 km/h (2 Bft)
01.06.2012 08:05 11,0 C 93 % 0,0 l/m 9,2 km/h (2 Bft) S-SO 157 9,9 C 7,9 C 9,8 km/h (2 Bft)
01.06.2012 08:10 11,0 C 93 % 0,7 l/m 7,7 km/h (2 Bft) SO 135 9,9 C 9,3 C 7,9 km/h (2 Bft)
01.06.2012 08:15 11,1 C 93 % 0,0 l/m 7,7 km/h (2 Bft) O 90 10,0 C 9,3 C 19,3 km/h (3 Bft)
01.06.2012 08:20 11,1 C 93 % 0,0 l/m 7,2 km/h (2 Bft) O-SO 112 10,0 C 9,7 C 7,9 km/h (2 Bft)
01.06.2012 08:25 11,2 C 93 % 0,0 l/m 6,6 km/h (2 Bft) SO 135 10,1 C 10,5 C 6,9 km/h (2 Bft)
01.06.2012 08:30 11,2 C 93 % 0,0 l/m 6,0 km/h (2 Bft) O-SO 112 10,1 C 10,7 C 5,5 km/h (1 Bft)
01.06.2012 08:35 11,1 C 93 % 0,0 l/m 6,6 km/h (2 Bft) O-SO 112 10,0 C 10,5 C 7,7 km/h (2 Bft)
01.06.2012 08:40 11,1 C 93 % 0,0 l/m 6,9 km/h (2 Bft) S-SO 157 10,0 C 10,0 C 16,1 km/h (3 Bft)
01.06.2012 08:45 11,2 C 93 % 0,0 l/m 6,1 km/h (2 Bft) SO 135 10,1 C 10,7 C 6,1 km/h (2 Bft)
01.06.2012 08:50 11,4 C 93 % 0,7 l/m 6,9 km/h (2 Bft) S-SW 202 10,3 C 10,4 C 5,8 km/h (2 Bft)
01.06.2012 08:55 11,4 C 93 % 0,0 l/m 6,4 km/h (2 Bft) N 360 10,3 C 10,9 C 5,5 km/h (1 Bft)
01.06.2012 09:00 11,7 C 93 % 0,0 l/m 6,3 km/h (2 Bft) NO 45 10,6 C 11,1 C 9,2 km/h (2 Bft)
01.06.2012 09:05 11,8 C 93 % 0,0 l/m 5,8 km/h (2 Bft) O-SO 112 10,7 C 11,3 C 11,1 km/h (2 Bft)
01.06.2012 09:10 11,7 C 93 % 0,0 l/m 5,3 km/h (1 Bft) O-NO 67 10,6 C 11,6 C 6,0 km/h (2 Bft)
01.06.2012 09:15 11,7 C 93 % 0,0 l/m 6,0 km/h (2 Bft) SO 135 10,6 C 11,3 C 12,1 km/h (2 Bft)
01.06.2012 09:20 11,9 C 93 % 0,7 l/m 6,0 km/h (2 Bft) S-SW 202 10,8 C 11,4 C 5,0 km/h (1 Bft)
01.06.2012 09:25 11,7 C 93 % 0,0 l/m 5,6 km/h (1 Bft) SO 135 10,6 C 11,6 C 13,8 km/h (3 Bft)
01.06.2012 09:30 11,6 C 92 % 0,0 l/m 4,8 km/h (1 Bft) S-SO 157 10,3 C 11,7 C 5,5 km/h (1 Bft)
01.06.2012 09:35 11,6 C 92 % 0,0 l/m 4,7 km/h (1 Bft) O-NO 67 10,3 C 11,7 C 2,3 km/h (1 Bft)
01.06.2012 09:40 11,5 C 93 % 0,0 l/m 4,8 km/h (1 Bft) O-SO 112 10,4 C 11,5 C 2,6 km/h (1 Bft)
01.06.2012 09:45 11,5 C 93 % 0,0 l/m 5,3 km/h (1 Bft) O-SO 112 10,4 C 11,2 C 7,4 km/h (2 Bft)
01.06.2012 09:50 11,7 C 93 % 0,7 l/m 5,3 km/h (1 Bft) O-SO 112 10,6 C 11,3 C 4,8 km/h (1 Bft)
01.06.2012 09:55 11,9 C 93 % 0,0 l/m 5,3 km/h (1 Bft) SO 135 10,8 C 11,5 C 6,1 km/h (2 Bft)
01.06.2012 10:00 11,8 C 93 % 0,0 l/m 4,8 km/h (1 Bft) N-NO 22 10,7 C 11,7 C 5,0 km/h (1 Bft)
01.06.2012 10:05 11,7 C 93 % 0,0 l/m 4,8 km/h (1 Bft) O-SO 112 10,6 C 11,7 C 4,8 km/h (1 Bft)
01.06.2012 10:10 12,2 C 92 % 0,0 l/m 4,5 km/h (1 Bft) O-SO 112 10,9 C 11,8 C 6,4 km/h (2 Bft)
01.06.2012 10:15 12,3 C 92 % 0,7 l/m 5,3 km/h (1 Bft) O-SO 112 11,0 C 12,1 C 12,4 km/h (3 Bft)
01.06.2012 10:20 12,1 C 92 % 0,0 l/m 8,2 km/h (2 Bft) SO 135 10,8 C 10,2 C 15,3 km/h (3 Bft)
01.06.2012 10:25 12,3 C 92 % 0,0 l/m 8,2 km/h (2 Bft) O-SO 112 11,0 C 10,2 C 10,0 km/h (2 Bft)
01.06.2012 10:30 12,2 C 92 % 0,0 l/m 7,4 km/h (2 Bft) SO 135 10,9 C 11,0 C 11,7 km/h (2 Bft)
01.06.2012 10:35 12,4 C 92 % 0,0 l/m 8,2 km/h (2 Bft) S-SO 157 11,1 C 10,4 C 10,5 km/h (2 Bft)
01.06.2012 10:40 12,3 C 91 % 0,0 l/m 8,5 km/h (2 Bft) SO 135 10,9 C 10,2 C 12,1 km/h (2 Bft)
01.06.2012 10:45 12,2 C 91 % 0,0 l/m 8,9 km/h (2 Bft) SO 135 10,8 C 10,0 C 12,1 km/h (2 Bft)
01.06.2012 10:50 12,2 C 91 % 0,0 l/m 9,0 km/h (2 Bft) SO 135 10,8 C 9,6 C 12,7 km/h (3 Bft)
01.06.2012 10:55 12,0 C 91 % 0,0 l/m 7,6 km/h (2 Bft) SO 135 10,6 C 10,8 C 8,2 km/h (2 Bft)
01.06.2012 11:00 12,3 C 91 % 0,7 l/m 6,8 km/h (2 Bft) SO 135 10,9 C 11,4 C 13,5 km/h (3 Bft)
01.06.2012 11:05 12,4 C 91 % 0,0 l/m 6,6 km/h (2 Bft) S 180 11,0 C 11,8 C 5,8 km/h (2 Bft)
01.06.2012 11:10 12,5 C 91 % 0,0 l/m 6,9 km/h (2 Bft) S-SO 157 11,1 C 11,6 C 8,7 km/h (2 Bft)
01.06.2012 11:15 12,5 C 91 % 0,0 l/m 6,0 km/h (2 Bft) O-SO 112 11,1 C 12,2 C 9,8 km/h (2 Bft)
01.06.2012 11:20 12,1 C 91 % 0,0 l/m 6,9 km/h (2 Bft) O-NO 67 10,7 C 11,5 C 6,1 km/h (2 Bft)
01.06.2012 11:25 12,1 C 91 % 0,0 l/m 7,9 km/h (2 Bft) O 90 10,7 C 10,5 C 9,2 km/h (2 Bft)
01.06.2012 11:30 12,2 C 91 % 0,7 l/m 8,4 km/h (2 Bft) O-SO 112 10,8 C 10,1 C 11,6 km/h (2 Bft)
01.06.2012 11:35 12,2 C 91 % 0,0 l/m 7,9 km/h (2 Bft) O-SO 112 10,8 C 10,5 C 5,0 km/h (1 Bft)
01.06.2012 11:40 12,1 C 91 % 0,0 l/m 6,6 km/h (2 Bft) O 90 10,7 C 11,6 C 8,2 km/h (2 Bft)
01.06.2012 11:45 12,4 C 91 % 0,0 l/m 6,0 km/h (2 Bft) N-NO 22 11,0 C 11,9 C 3,4 km/h (1 Bft)
01.06.2012 11:50 12,4 C 91 % 0,0 l/m 6,6 km/h (2 Bft) O-SO 112 11,0 C 11,8 C 12,7 km/h (3 Bft)
01.06.2012 11:55 12,3 C 91 % 0,0 l/m 7,6 km/h (2 Bft) SO 135 10,9 C 10,9 C 12,7 km/h (3 Bft)
01.06.2012 12:00 12,3 C 91 % 0,0 l/m 9,5 km/h (2 Bft) S-SO 157 10,9 C 9,4 C 10,1 km/h (2 Bft)
01.06.2012 12:05 12,3 C 91 % 0,0 l/m 10,0 km/h (2 Bft) SO 135 10,9 C 9,0 C 13,0 km/h (3 Bft)
01.06.2012 12:10 12,2 C 91 % 0,0 l/m 7,2 km/h (2 Bft) S 180 10,8 C 11,2 C 11,1 km/h (2 Bft)
01.06.2012 12:15 12,4 C 91 % 0,0 l/m 6,6 km/h (2 Bft) SO 135 11,0 C 11,8 C 3,9 km/h (1 Bft)
01.06.2012 12:20 12,3 C 91 % 0,0 l/m 7,4 km/h (2 Bft) SO 135 10,9 C 11,1 C 16,4 km/h (3 Bft)
01.06.2012 12:25 12,2 C 91 % 0,0 l/m 6,9 km/h (2 Bft) S-SO 157 10,8 C 11,5 C 7,7 km/h (2 Bft)
01.06.2012 12:30 12,0 C 91 % 0,0 l/m 7,1 km/h (2 Bft) O-SO 112 10,6 C 11,2 C 8,2 km/h (2 Bft)
01.06.2012 12:35 12,3 C 91 % 0,0 l/m 7,2 km/h (2 Bft) O-SO 112 10,9 C 11,1 C 8,7 km/h (2 Bft)
01.06.2012 12:40 12,5 C 91 % 0,0 l/m 7,6 km/h (2 Bft) S 180 11,1 C 10,9 C 10,1 km/h (2 Bft)
01.06.2012 12:45 12,2 C 91 % 0,7 l/m 7,9 km/h (2 Bft) S-SO 157 10,8 C 10,6 C 6,9 km/h (2 Bft)
01.06.2012 12:50 12,0 C 91 % 0,0 l/m 8,9 km/h (2 Bft) SO 135 10,6 C 9,6 C 7,9 km/h (2 Bft)
01.06.2012 12:55 12,0 C 91 % 0,0 l/m 9,0 km/h (2 Bft) SO 135 10,6 C 9,4 C 8,9 km/h (2 Bft)
01.06.2012 13:00 12,1 C 91 % 0,7 l/m 8,5 km/h (2 Bft) S 180 10,7 C 9,7 C 4,5 km/h (1 Bft)
01.06.2012 13:05 12,3 C 91 % 0,0 l/m 7,9 km/h (2 Bft) S-SO 157 10,9 C 10,3 C 10,6 km/h (2 Bft)
01.06.2012 13:10 12,4 C 91 % 0,0 l/m 8,2 km/h (2 Bft) O-SO 112 11,0 C 10,2 C 9,8 km/h (2 Bft)
01.06.2012 13:15 12,5 C 91 % 0,0 l/m 8,7 km/h (2 Bft) O-NO 67 11,1 C 10,2 C 13,2 km/h (3 Bft)
01.06.2012 13:20 13,0 C 89 % 0,0 l/m 8,4 km/h (2 Bft) O-SO 112 11,2 C 11,1 C 18,5 km/h (3 Bft)
01.06.2012 13:25 13,0 C 89 % 0,0 l/m 8,4 km/h (2 Bft) S 180 11,2 C 11,7 C 3,5 km/h (1 Bft)
01.06.2012 13:30 13,4 C 89 % 0,0 l/m 7,4 km/h (2 Bft) W 270 11,6 C 13,1 C 10,8 km/h (2 Bft)
01.06.2012 13:35 14,6 C 89 % 0,0 l/m 6,0 km/h (2 Bft) S 180 12,8 C 14,4 C 8,7 km/h (2 Bft)
01.06.2012 13:40 14,9 C 88 % 0,0 l/m 6,6 km/h (2 Bft) S-SO 157 12,9 C 15,6 C 13,4 km/h (3 Bft)
01.06.2012 13:45 14,8 C 87 % 0,0 l/m 6,4 km/h (2 Bft) O-SO 112 12,7 C 16,1 C 13,5 km/h (3 Bft)
01.06.2012 13:50 14,3 C 86 % 0,0 l/m 5,8 km/h (2 Bft) S-SO 157 12,0 C 16,2 C 10,0 km/h (2 Bft)
01.06.2012 13:55 14,3 C 85 % 0,0 l/m 7,1 km/h (2 Bft) O-SO 112 11,8 C 15,7 C 14,6 km/h (3 Bft)
01.06.2012 14:00 14,2 C 85 % 0,0 l/m 9,0 km/h (2 Bft) O-SO 112 11,7 C 14,6 C 19,0 km/h (3 Bft)
01.06.2012 14:05 14,5 C 85 % 0,0 l/m 9,5 km/h (2 Bft) SO 135 12,0 C 13,9 C 11,6 km/h (2 Bft)
01.06.2012 14:10 15,5 C 83 % 0,0 l/m 10,8 km/h (2 Bft) SO 135 12,6 C 14,3 C 15,3 km/h (3 Bft)
01.06.2012 14:15 15,4 C 82 % 0,0 l/m 10,0 km/h (2 Bft) O-SO 112 12,3 C 15,4 C 15,1 km/h (3 Bft)
01.06.2012 14:20 15,8 C 81 % 0,0 l/m 9,5 km/h (2 Bft) O-SO 112 12,5 C 16,1 C 15,4 km/h (3 Bft)
01.06.2012 14:25 15,4 C 81 % 0,0 l/m 10,3 km/h (2 Bft) O 90 12,2 C 15,8 C 10,1 km/h (2 Bft)
01.06.2012 14:30 14,5 C 82 % 0,0 l/m 10,6 km/h (2 Bft) O-SO 112 11,5 C 14,6 C 12,2 km/h (2 Bft)
01.06.2012 14:35 14,0 C 83 % 0,0 l/m 10,6 km/h (2 Bft) SO 135 11,2 C 13,6 C 12,2 km/h (2 Bft)
01.06.2012 14:40 14,2 C 84 % 0,0 l/m 8,9 km/h (2 Bft) S-SW 202 11,5 C 13,9 C 9,2 km/h (2 Bft)
01.06.2012 14:45 14,1 C 83 % 0,0 l/m 7,4 km/h (2 Bft) S 180 11,3 C 14,8 C 5,8 km/h (2 Bft)
01.06.2012 14:50 14,3 C 84 % 0,0 l/m 7,1 km/h (2 Bft) SO 135 11,6 C 15,0 C 6,6 km/h (2 Bft)
01.06.2012 14:55 14,6 C 83 % 0,0 l/m 8,0 km/h (2 Bft) O-SO 112 11,7 C 14,7 C 15,8 km/h (3 Bft)
01.06.2012 15:00 14,7 C 81 % 0,0 l/m 10,1 km/h (2 Bft) O 90 11,5 C 14,3 C 13,4 km/h (3 Bft)
01.06.2012 15:05 14,9 C 82 % 0,0 l/m 10,5 km/h (2 Bft) S-SO 157 11,9 C 13,9 C 6,8 km/h (2 Bft)
01.06.2012 15:10 14,9 C 82 % 0,0 l/m 8,9 km/h (2 Bft) O-SO 112 11,9 C 14,9 C 11,3 km/h (2 Bft)
01.06.2012 15:15 14,7 C 81 % 0,0 l/m 8,5 km/h (2 Bft) S-SO 157 11,5 C 15,1 C 5,0 km/h (1 Bft)
01.06.2012 15:20 14,9 C 83 % 0,0 l/m 7,4 km/h (2 Bft) O-SO 112 12,0 C 15,8 C 9,2 km/h (2 Bft)
01.06.2012 15:25 15,0 C 83 % 0,0 l/m 6,3 km/h (2 Bft) O-SO 112 12,1 C 16,4 C 10,6 km/h (2 Bft)
01.06.2012 15:30 15,5 C 83 % 0,0 l/m 5,5 km/h (1 Bft) SO 135 12,6 C 16,9 C 6,9 km/h (2 Bft)
01.06.2012 15:35 15,6 C 83 % 0,0 l/m 5,0 km/h (1 Bft) O-SO 112 12,7 C 17,1 C 2,9 km/h (1 Bft)
01.06.2012 15:40 15,6 C 81 % 0,0 l/m 6,0 km/h (2 Bft) O-SO 112 12,3 C 17,4 C 12,6 km/h (3 Bft)
01.06.2012 15:45 15,9 C 80 % 0,0 l/m 6,4 km/h (2 Bft) SO 135 12,5 C 17,5 C 8,0 km/h (2 Bft)
01.06.2012 15:50 15,5 C 78 % 0,0 l/m 7,9 km/h (2 Bft) S-SO 157 11,7 C 16,5 C 4,8 km/h (1 Bft)
01.06.2012 15:55 15,3 C 80 % 0,0 l/m 9,2 km/h (2 Bft) O 90 11,9 C 15,6 C 5,6 km/h (1 Bft)
01.06.2012 16:00 14,9 C 80 % 0,0 l/m 8,5 km/h (2 Bft) SO 135 11,5 C 15,3 C 9,8 km/h (2 Bft)
01.06.2012 16:05 14,7 C 80 % 0,0 l/m 7,7 km/h (2 Bft) W 270 11,3 C 15,3 C 6,4 km/h (2 Bft)
01.06.2012 16:10 15,0 C 82 % 0,0 l/m 6,6 km/h (2 Bft) SO 135 12,0 C 15,9 C 6,9 km/h (2 Bft)
01.06.2012 16:15 15,1 C 82 % 0,0 l/m 6,3 km/h (2 Bft) O 90 12,0 C 16,1 C 7,9 km/h (2 Bft)
01.06.2012 16:20 15,0 C 81 % 0,0 l/m 7,1 km/h (2 Bft) O-SO 112 11,8 C 15,6 C 12,2 km/h (2 Bft)
01.06.2012 16:25 14,7 C 81 % 0,0 l/m 7,2 km/h (2 Bft) SO 135 11,5 C 15,5 C 11,3 km/h (2 Bft)
01.06.2012 16:30 14,6 C 82 % 0,0 l/m 8,4 km/h (2 Bft) O-SO 112 11,6 C 14,5 C 16,4 km/h (3 Bft)
01.06.2012 16:35 14,6 C 82 % 0,0 l/m 8,4 km/h (2 Bft) SO 135 11,6 C 14,2 C 10,3 km/h (2 Bft)
01.06.2012 16:40 14,6 C 83 % 0,0 l/m 8,0 km/h (2 Bft) O-SO 112 11,7 C 14,3 C 12,2 km/h (2 Bft)
01.06.2012 16:45 14,6 C 81 % 0,0 l/m 8,2 km/h (2 Bft) O-SO 112 11,4 C 14,2 C 5,5 km/h (1 Bft)
01.06.2012 16:50 14,9 C 83 % 0,0 l/m 6,3 km/h (2 Bft) SO 135 12,0 C 15,6 C 4,8 km/h (1 Bft)
01.06.2012 16:55 15,2 C 84 % 0,0 l/m 4,7 km/h (1 Bft) O 90 12,5 C 15,9 C 6,6 km/h (2 Bft)
01.06.2012 17:00 15,5 C 85 % 0,0 l/m 3,9 km/h (1 Bft) O-SO 112 13,0 C 16,2 C 4,0 km/h (1 Bft)
01.06.2012 17:05 15,6 C 85 % 0,0 l/m 4,0 km/h (1 Bft) O-SO 112 13,1 C 16,4 C 9,5 km/h (2 Bft)
01.06.2012 17:10 15,4 C 84 % 0,0 l/m 5,1 km/h (1 Bft) W 270 12,7 C 16,3 C 8,9 km/h (2 Bft)
01.06.2012 17:15 15,6 C 83 % 0,0 l/m 5,1 km/h (1 Bft) O-SO 112 12,7 C 16,4 C 8,2 km/h (2 Bft)
01.06.2012 17:20 15,8 C 80 % 0,0 l/m 5,8 km/h (2 Bft) SO 135 12,4 C 16,9 C 7,7 km/h (2 Bft)
01.06.2012 17:25 15,6 C 79 % 0,0 l/m 6,4 km/h (2 Bft) SO 135 12,0 C 17,0 C 10,9 km/h (2 Bft)
01.06.2012 17:30 15,7 C 79 % 0,0 l/m 7,4 km/h (2 Bft) O-SO 112 12,1 C 16,4 C 8,4 km/h (2 Bft)
01.06.2012 17:35 16,0 C 78 % 0,0 l/m 7,7 km/h (2 Bft) O-SO 112 12,2 C 16,5 C 11,7 km/h (2 Bft)
01.06.2012 17:40 16,4 C 76 % 0,0 l/m 7,9 km/h (2 Bft) W-SW 247 12,2 C 17,2 C 5,1 km/h (1 Bft)
01.06.2012 17:45 16,8 C 75 % 0,0 l/m 7,4 km/h (2 Bft) O 90 12,3 C 18,6 C 11,9 km/h (2 Bft)
01.06.2012 17:50 17,0 C 75 % 0,0 l/m 6,1 km/h (2 Bft) S-SW 202 12,5 C 20,1 C 1,9 km/h (1 Bft)
01.06.2012 17:55 17,0 C 75 % 0,0 l/m 5,5 km/h (1 Bft) SO 135 12,5 C 20,9 C 5,1 km/h (1 Bft)
01.06.2012 18:00 16,8 C 73 % 0,0 l/m 5,5 km/h (1 Bft) O-SO 112 11,9 C 20,9 C 10,3 km/h (2 Bft)
01.06.2012 18:05 16,7 C 74 % 0,0 l/m 6,1 km/h (2 Bft) N 360 12,0 C 20,7 C 3,7 km/h (1 Bft)
01.06.2012 18:10 16,2 C 73 % 0,0 l/m 6,3 km/h (2 Bft) SO 135 11,4 C 19,5 C 6,8 km/h (2 Bft)
01.06.2012 18:15 16,9 C 74 % 0,0 l/m 6,0 km/h (2 Bft) O-SO 112 12,2 C 19,4 C 6,3 km/h (2 Bft)
01.06.2012 18:20 17,3 C 73 % 0,0 l/m 5,1 km/h (1 Bft) S 180 12,4 C 20,3 C 6,0 km/h (2 Bft)
01.06.2012 18:25 16,6 C 73 % 0,0 l/m 4,7 km/h (1 Bft) SO 135 11,7 C 20,8 C 9,7 km/h (2 Bft)
01.06.2012 18:30 15,6 C 75 % 0,0 l/m 5,3 km/h (1 Bft) NO 45 11,2 C 18,6 C 6,4 km/h (2 Bft)
01.06.2012 18:35 15,4 C 74 % 0,0 l/m 6,4 km/h (2 Bft) SO 135 10,8 C 17,4 C 7,9 km/h (2 Bft)
01.06.2012 18:40 15,1 C 76 % 0,0 l/m 6,4 km/h (2 Bft) SO 135 10,9 C 16,3 C 4,3 km/h (1 Bft)
01.06.2012 18:45 15,2 C 77 % 0,0 l/m 5,1 km/h (1 Bft) O-SO 112 11,2 C 16,0 C 3,1 km/h (1 Bft)
01.06.2012 18:50 14,9 C 78 % 0,0 l/m 3,5 km/h (1 Bft) NO 45 11,1 C 15,6 C 4,2 km/h (1 Bft)
01.06.2012 18:55 14,6 C 79 % 0,0 l/m 3,1 km/h (1 Bft) O-SO 112 11,0 C 15,4 C 3,1 km/h (1 Bft)
01.06.2012 19:00 14,4 C 79 % 0,0 l/m 3,1 km/h (1 Bft) O-SO 112 10,8 C 15,0 C 3,5 km/h (1 Bft)
01.06.2012 19:05 14,3 C 79 % 0,0 l/m 3,1 km/h (1 Bft) O-SO 112 10,7 C 14,9 C 4,0 km/h (1 Bft)
01.06.2012 19:10 14,2 C 79 % 0,0 l/m 3,5 km/h (1 Bft) SO 135 10,6 C 14,7 C 5,0 km/h (1 Bft)
01.06.2012 19:15 14,2 C 78 % 0,0 l/m 3,7 km/h (1 Bft) O-SO 112 10,4 C 14,6 C 7,4 km/h (2 Bft)
01.06.2012 19:20 14,0 C 78 % 0,0 l/m 3,5 km/h (1 Bft) SO 135 10,2 C 14,4 C 4,5 km/h (1 Bft)
01.06.2012 19:25 13,9 C 79 % 0,0 l/m 2,9 km/h (1 Bft) SO 135 10,3 C 14,4 C 0,0 km/h (0 Bft)
01.06.2012 19:30 13,7 C 80 % 0,0 l/m 2,3 km/h (1 Bft) NO 45 10,3 C 14,1 C 3,1 km/h (1 Bft)
01.06.2012 19:35 13,6 C 80 % 0,0 l/m 1,9 km/h (1 Bft) SO 135 10,2 C 14,1 C 0,0 km/h (0 Bft)
01.06.2012 19:40 13,5 C 80 % 0,0 l/m 1,9 km/h (1 Bft) O-SO 112 10,1 C 14,0 C 3,1 km/h (1 Bft)
01.06.2012 19:45 13,4 C 81 % 0,0 l/m 1,8 km/h (1 Bft) S 180 10,2 C 13,9 C 3,2 km/h (1 Bft)
01.06.2012 19:50 13,3 C 81 % 0,0 l/m 1,9 km/h (1 Bft) O 90 10,1 C 13,9 C 3,2 km/h (1 Bft)
01.06.2012 19:55 13,3 C 80 % 0,0 l/m 2,6 km/h (1 Bft) O-SO 112 9,9 C 13,8 C 5,0 km/h (1 Bft)
01.06.2012 20:00 13,3 C 80 % 0,0 l/m 2,4 km/h (1 Bft) NO 45 9,9 C 13,7 C 0,0 km/h (0 Bft)
01.06.2012 20:05 13,2 C 80 % 0,0 l/m 2,4 km/h (1 Bft) S-SO 157 9,8 C 13,7 C 2,9 km/h (1 Bft)
01.06.2012 20:10 13,0 C 81 % 0,0 l/m 2,1 km/h (1 Bft) O-SO 112 9,8 C 13,7 C 3,1 km/h (1 Bft)
01.06.2012 20:15 13,0 C 82 % 0,0 l/m 1,6 km/h (1 Bft) SO 135 10,0 C 13,7 C 1,8 km/h (1 Bft)
01.06.2012 20:20 12,9 C 83 % 0,0 l/m 1,4 km/h (1 Bft) O-SO 112 10,1 C 13,6 C 2,6 km/h (1 Bft)
01.06.2012 20:25 12,8 C 84 % 0,0 l/m 1,3 km/h (1 Bft) S-SO 157 10,2 C 13,5 C 2,9 km/h (1 Bft)
01.06.2012 20:30 12,7 C 84 % 0,0 l/m 0,8 km/h (0 Bft) S 180 10,1 C 13,5 C 2,1 km/h (1 Bft)
01.06.2012 20:35 12,7 C 84 % 0,0 l/m 1,0 km/h (0 Bft) SO 135 10,1 C 13,4 C 0,0 km/h (0 Bft)
01.06.2012 20:40 12,6 C 84 % 0,0 l/m 1,0 km/h (0 Bft) N 360 10,0 C 13,3 C 0,0 km/h (0 Bft)
01.06.2012 20:45 12,6 C 85 % 0,0 l/m 0,6 km/h (0 Bft) N-NW 337 10,1 C 13,2 C 1,6 km/h (1 Bft)
01.06.2012 20:50 12,5 C 85 % 0,0 l/m 0,3 km/h (0 Bft) N-NO 22 10,0 C 12,9 C 0,0 km/h (0 Bft)
01.06.2012 20:55 12,4 C 85 % 0,0 l/m 0,3 km/h (0 Bft) NO 45 9,9 C 12,9 C 0,0 km/h (0 Bft)
01.06.2012 21:00 12,4 C 84 % 0,0 l/m 0,6 km/h (0 Bft) O 90 9,8 C 12,8 C 0,0 km/h (0 Bft)
01.06.2012 21:05 12,4 C 84 % 0,0 l/m 0,5 km/h (0 Bft) S-SW 202 9,8 C 12,8 C 0,0 km/h (0 Bft)
01.06.2012 21:10 12,4 C 83 % 0,0 l/m 0,5 km/h (0 Bft) O 90 9,6 C 12,7 C 0,0 km/h (0 Bft)
01.06.2012 21:15 12,4 C 82 % 0,0 l/m 0,5 km/h (0 Bft) NO 45 9,4 C 12,7 C 2,9 km/h (1 Bft)
01.06.2012 21:20 12,4 C 82 % 0,0 l/m 0,6 km/h (0 Bft) N-NO 22 9,4 C 12,6 C 2,4 km/h (1 Bft)
01.06.2012 21:25 12,4 C 82 % 0,0 l/m 0,6 km/h (0 Bft) O 90 9,4 C 12,6 C 0,0 km/h (0 Bft)
01.06.2012 21:30 12,5 C 81 % 0,0 l/m 0,3 km/h (0 Bft) N 360 9,3 C 12,5 C 1,6 km/h (1 Bft)
01.06.2012 21:35 12,5 C 80 % 0,0 l/m 0,3 km/h (0 Bft) N-NO 22 9,1 C 12,5 C 0,0 km/h (0 Bft)
01.06.2012 21:40 12,5 C 79 % 0,0 l/m 0,5 km/h (0 Bft) N 360 9,0 C 12,5 C 0,0 km/h (0 Bft)
01.06.2012 21:45 12,5 C 79 % 0,0 l/m 0,8 km/h (0 Bft) N 360 9,0 C 12,5 C 3,1 km/h (1 Bft)
01.06.2012 21:50 12,4 C 80 % 0,0 l/m 0,8 km/h (0 Bft) N-NO 22 9,0 C 12,4 C 0,0 km/h (0 Bft)
01.06.2012 21:55 12,4 C 80 % 0,0 l/m 1,1 km/h (1 Bft) W-NW 292 9,0 C 12,4 C 3,9 km/h (1 Bft)
01.06.2012 22:00 12,3 C 82 % 0,0 l/m 0,8 km/h (0 Bft) N-NW 337 9,3 C 12,4 C 0,0 km/h (0 Bft)
01.06.2012 22:05 12,3 C 82 % 0,0 l/m 0,5 km/h (0 Bft) N 360 9,3 C 12,4 C 1,6 km/h (1 Bft)
01.06.2012 22:10 12,3 C 81 % 0,0 l/m 0,2 km/h (0 Bft) N 360 9,1 C 12,4 C 0,0 km/h (0 Bft)
01.06.2012 22:15 12,3 C 82 % 0,0 l/m 0,3 km/h (0 Bft) NO 45 9,3 C 12,3 C 2,3 km/h (1 Bft)
01.06.2012 22:20 12,3 C 82 % 0,0 l/m 0,6 km/h (0 Bft) N-NO 22 9,3 C 12,3 C 1,8 km/h (1 Bft)
01.06.2012 22:25 12,4 C 82 % 0,0 l/m 1,1 km/h (1 Bft) NO 45 9,4 C 12,3 C 0,0 km/h (0 Bft)
01.06.2012 22:30 12,6 C 81 % 0,0 l/m 2,4 km/h (1 Bft) O 90 9,4 C 12,5 C 3,4 km/h (1 Bft)
01.06.2012 22:35 12,5 C 81 % 0,0 l/m 3,2 km/h (1 Bft) NO 45 9,3 C 12,5 C 6,8 km/h (2 Bft)
01.06.2012 22:40 12,5 C 81 % 0,0 l/m 3,4 km/h (1 Bft) O 90 9,3 C 12,5 C 3,1 km/h (1 Bft)
01.06.2012 22:45 12,4 C 81 % 0,0 l/m 3,9 km/h (1 Bft) O-SO 112 9,2 C 12,5 C 6,3 km/h (2 Bft)
01.06.2012 22:50 12,3 C 81 % 0,0 l/m 4,2 km/h (1 Bft) S-SO 157 9,1 C 12,5 C 5,3 km/h (1 Bft)
01.06.2012 22:55 12,3 C 82 % 0,0 l/m 4,0 km/h (1 Bft) O-SO 112 9,3 C 12,5 C 3,4 km/h (1 Bft)
01.06.2012 23:00 12,3 C 82 % 0,0 l/m 3,7 km/h (1 Bft) O-SO 112 9,3 C 12,4 C 3,5 km/h (1 Bft)
01.06.2012 23:05 12,2 C 82 % 0,0 l/m 3,2 km/h (1 Bft) S-SO 157 9,2 C 12,4 C 5,0 km/h (1 Bft)
01.06.2012 23:10 12,1 C 83 % 0,0 l/m 3,9 km/h (1 Bft) O-SO 112 9,3 C 12,3 C 5,5 km/h (1 Bft)
01.06.2012 23:15 12,0 C 84 % 0,0 l/m 4,5 km/h (1 Bft) O-SO 112 9,4 C 12,0 C 5,3 km/h (1 Bft)
01.06.2012 23:20 11,9 C 84 % 0,0 l/m 3,7 km/h (1 Bft) O-SO 112 9,3 C 11,8 C 3,1 km/h (1 Bft)
01.06.2012 23:25 11,7 C 85 % 0,0 l/m 1,9 km/h (1 Bft) O 90 9,3 C 11,6 C 2,9 km/h (1 Bft)
01.06.2012 23:30 11,6 C 86 % 0,0 l/m 0,6 km/h (0 Bft) W 270 9,3 C 11,3 C 0,0 km/h (0 Bft)
01.06.2012 23:35 11,6 C 86 % 0,0 l/m 0,5 km/h (0 Bft) W-NW 292 9,3 C 11,3 C 2,1 km/h (1 Bft)
01.06.2012 23:40 11,5 C 87 % 0,0 l/m 0,5 km/h (0 Bft) N 360 9,4 C 11,1 C 5,6 km/h (1 Bft)
01.06.2012 23:45 11,4 C 88 % 0,0 l/m 1,3 km/h (1 Bft) N-NO 22 9,5 C 11,1 C 2,7 km/h (1 Bft)
01.06.2012 23:50 11,4 C 88 % 0,0 l/m 1,1 km/h (1 Bft) NO 45 9,5 C 11,0 C 0,0 km/h (0 Bft)
01.06.2012 23:55 11,4 C 88 % 0,0 l/m 0,8 km/h (0 Bft) N 360 9,5 C 11,0 C 2,4 km/h (1 Bft)
_ Min-Zeit 06:25 18:25 - 22:10 - - 21:45 06:10 23:50
Minimum _ 10,6 C 73 % - 0,2 km/h (0 Bft) - - 9,0 C 6,0 C 0,0 km/h (0 Bft)
_ Max-Zeit 18:20 08:00 05:50 04:55 - - 17:05 18:00 04:50
Maximum _ 17,3 C 94 % 1,4 l/m 11,6 km/h
S-SO (2 Bft)
- - 13,1 C 20,9 C 24,6 km/h
S-SO (4 Bft)
Durchschnitt _ 12,9 C 87 % #26,1 l/m 5,9 km/h (2 Bft) O-SO - 10,7 C 12,5 C 7,8 km/h (2 Bft)